College Park, MD

11:06 AM EST on December 15, 2017 (GMT -0500)
College Park

Weather History for KCGS - January, 2013

Change the Weather History Date:

Sunday, January 27, 2013

  Actual Average Record
Temperature  
Mean Temperature 30 °F -  
Max Temperature 40 °F 43 °F 75 °F (1950)
Min Temperature 21 °F 25 °F 4 °F (1987)
Degree Days  
Heating Degree Days 34    
Moisture  
Dew Point 22 °F    
Average Humidity 71    
Maximum Humidity 98    
Minimum Humidity 43    
Precipitation  
Precipitation 0.00 in - - ()
Sea Level Pressure  
Sea Level Pressure 30.53 in    
Wind  
Wind Speed 1 mph (NW)    
Max Wind Speed 7 mph    
Max Gust Speed -    
Visibility 9 miles    
Events      
Averages and records for this station are not official NWS values.
T = Trace of Precipitation, MM = Missing Value Source: NWS Daily Summary

Daily Weather History Graph

Daily Weather History Graph

Search for Another Location

Airport or City:

Trip Planner

Search our weather history database for the weather conditions in past years. The results will help you decide how hot, cold, wet, or windy it might be!

Date:

Astronomy

Jan. 27, 2013 Rise Set
Actual Time 7:18 AM EST 5:23 PM EST
Civil Twilight 6:49 AM EST 5:51 PM EST
Nautical Twilight 6:17 AM EST 6:24 PM EST
Astronomical Twilight 5:45 AM EST 6:55 PM EST
Moon 6:14 PM EST (1/27) 7:10 AM EST (1/27)
Length of Visible Light 11h 02m
Length of Day
10h 05m
Full, 100% of the Moon is Illuminated
Jan 27
Full
Feb 3
Last Quarter
Feb 10
New
Feb 17
First Quarter
Feb 25
Full

Hourly Weather History & Observations

Time (EST) Temp. Windchill Dew Point Humidity Pressure Visibility Wind Dir Wind Speed Gust Speed Precip Events Conditions
12:00 AM 25.5 °F - 23.9 °F 94% 30.45 in 7.0 mi Calm Calm - N/A   Clear
12:25 AM 23.7 °F - 21.9 °F 93% 30.46 in 7.0 mi Calm Calm - N/A   Clear
12:45 AM 24.3 °F - 22.8 °F 94% 30.46 in 7.0 mi Calm Calm - N/A   Clear
1:05 AM 23.5 °F - 22.6 °F 96% 30.46 in 7.0 mi Calm Calm - N/A   Clear
1:30 AM 23.4 °F - 22.6 °F 97% 30.47 in 7.0 mi Calm Calm - N/A   Clear
1:50 AM 23.0 °F - 21.9 °F 96% 30.47 in 7.0 mi Calm Calm - N/A   Clear
2:10 AM 22.5 °F - 21.9 °F 98% 30.48 in 5.0 mi Calm Calm - N/A   Clear
2:25 AM 21.9 °F - 21.2 °F 97% 30.48 in 7.0 mi Calm Calm - N/A   Clear
2:55 AM 21.6 °F - 20.7 °F 96% 30.48 in 7.0 mi Calm Calm - N/A   Clear
3:15 AM 21.9 °F - 21.2 °F 97% 30.49 in 7.0 mi Calm Calm - N/A   Clear
3:35 AM 22.3 °F - 21.4 °F 96% 30.48 in 7.0 mi Calm Calm - N/A   Clear
3:55 AM 23.0 °F - 22.1 °F 96% 30.49 in 7.0 mi Calm Calm - N/A   Clear
4:20 AM 24.6 °F - 23.2 °F 94% 30.49 in 7.0 mi Calm Calm - N/A   Clear
4:40 AM 26.6 °F - 23.2 °F 87% 30.49 in 10.0 mi Calm Calm - N/A   Clear
5:00 AM 29.5 °F 25.9 °F 21.9 °F 73% 30.49 in 10.0 mi NNW 3.5 mph - N/A   Clear
5:20 AM 29.5 °F 25.9 °F 21.0 °F 71% 30.50 in 10.0 mi NNW 3.5 mph - N/A   Clear
5:45 AM 29.3 °F 24.3 °F 21.0 °F 71% 30.50 in 10.0 mi NNW 4.6 mph - N/A   Clear
6:05 AM 28.8 °F 25.0 °F 21.2 °F 73% 30.51 in 10.0 mi NNW 3.5 mph - N/A   Clear
6:25 AM 29.3 °F - 21.2 °F 72% 30.52 in 10.0 mi Calm Calm - N/A   Clear
6:45 AM 29.3 °F - 21.2 °F 72% 30.53 in 10.0 mi Calm Calm - N/A   Clear
7:10 AM 27.7 °F - 21.6 °F 78% 30.54 in 10.0 mi Calm Calm - N/A   Clear
7:30 AM 26.6 °F - 22.1 °F 83% 30.55 in 10.0 mi Calm Calm - N/A   Clear
7:50 AM 26.2 °F - 22.3 °F 85% 30.56 in 10.0 mi Calm Calm - N/A   Clear
8:10 AM 26.4 °F - 23.0 °F 87% 30.57 in 10.0 mi Calm Calm - N/A   Clear
8:35 AM 28.4 °F - 23.5 °F 82% 30.58 in 10.0 mi Calm Calm - N/A   Clear
8:55 AM 30.9 °F - 22.3 °F 70% 30.60 in 10.0 mi Calm Calm - N/A   Clear
9:15 AM 31.8 °F - 22.1 °F 67% 30.60 in 10.0 mi Calm Calm - N/A   Clear
9:35 AM 32.2 °F 25.8 °F 21.0 °F 63% 30.61 in 10.0 mi North 6.9 mph - N/A   Clear
10:00 AM 32.9 °F 27.5 °F 19.6 °F 58% 30.60 in 10.0 mi North 5.8 mph - N/A   Clear
10:20 AM 33.6 °F 30.6 °F 18.7 °F 54% 30.62 in 10.0 mi NNE 3.5 mph - N/A   Clear
10:40 AM 34.5 °F 30.4 °F 19.2 °F 54% 30.61 in 10.0 mi NNE 4.6 mph - N/A   Clear
11:00 AM 34.7 °F 31.8 °F 18.9 °F 52% 30.61 in 10.0 mi North 3.5 mph - N/A   Clear
11:25 AM 35.4 °F 32.6 °F 18.7 °F 51% 30.60 in 10.0 mi North 3.5 mph - N/A   Clear
11:45 AM 36.1 °F - 19.2 °F 50% 30.59 in 10.0 mi Calm Calm - N/A   Clear
12:05 PM 36.3 °F - 18.7 °F 49% 30.58 in 10.0 mi Calm Calm - N/A   Clear
12:25 PM 36.5 °F 33.9 °F 18.5 °F 48% 30.56 in 10.0 mi NNW 3.5 mph - N/A   Clear
12:50 PM 38.3 °F - 19.6 °F 47% 30.55 in 10.0 mi Calm Calm - N/A   Clear
1:10 PM 37.9 °F 34.4 °F 18.9 °F 46% 30.54 in 10.0 mi South 4.6 mph - N/A   Clear
1:25 PM 38.8 °F 35.4 °F 18.7 °F 44% 30.53 in 10.0 mi West 4.6 mph - N/A   Clear
1:50 PM 38.5 °F 33.4 °F 18.9 °F 45% 30.53 in 10.0 mi WSW 6.9 mph - N/A   Clear
2:15 PM 39.4 °F 36.1 °F 19.6 °F 45% 30.53 in 10.0 mi NW 4.6 mph - N/A   Clear
2:35 PM 40.1 °F 36.1 °F 19.6 °F 44% 30.52 in 10.0 mi West 5.8 mph - N/A   Clear
2:55 PM 39.9 °F 37.8 °F 19.9 °F 45% 30.53 in 10.0 mi NW 3.5 mph - N/A   Clear
3:10 PM 39.7 °F - 19.6 °F 44% 30.52 in 10.0 mi Calm Calm - N/A   Clear
3:40 PM 39.0 °F - 19.6 °F 46% 30.51 in 10.0 mi Calm Calm - N/A   Clear
4:00 PM 39.9 °F 37.8 °F 19.2 °F 43% 30.51 in 10.0 mi WNW 3.5 mph - N/A   Clear
4:20 PM 39.6 °F 37.4 °F 19.4 °F 44% 30.51 in 10.0 mi WNW 3.5 mph - N/A   Clear
4:40 PM 38.8 °F 36.5 °F 19.2 °F 45% 30.52 in 10.0 mi WSW 3.5 mph - N/A   Clear
5:05 PM 38.5 °F - 19.2 °F 46% 30.52 in 10.0 mi Calm Calm - N/A   Clear
5:25 PM 36.5 °F - 20.7 °F 53% 30.52 in 10.0 mi Calm Calm - N/A   Clear
5:45 PM 36.0 °F - 21.2 °F 55% 30.52 in 10.0 mi Calm Calm - N/A   Clear
6:05 PM 34.7 °F - 21.4 °F 58% 30.53 in 10.0 mi Calm Calm - N/A   Clear
6:50 PM 31.1 °F - 23.4 °F 73% 30.54 in 10.0 mi Calm Calm - N/A   Clear
7:10 PM 30.9 °F - 23.0 °F 72% 30.53 in 10.0 mi Calm Calm - N/A   Clear
7:30 PM 30.9 °F - 22.1 °F 70% 30.52 in 10.0 mi Calm Calm - N/A   Clear
7:55 PM 28.4 °F - 23.4 °F 81% 30.53 in 10.0 mi Calm Calm - N/A   Clear
8:15 PM 30.2 °F - 23.4 °F 76% 30.51 in 10.0 mi Calm Calm - N/A   Clear
8:35 PM 28.6 °F - 25.2 °F 87% 30.51 in 10.0 mi Calm Calm - N/A   Clear
8:55 PM 30.2 °F - 24.3 °F 79% 30.52 in 10.0 mi Calm Calm - N/A   Clear
9:20 PM 30.2 °F - 24.3 °F 79% 30.53 in 10.0 mi Calm Calm - N/A   Clear
9:40 PM 29.8 °F - 23.9 °F 79% 30.52 in 10.0 mi Calm Calm - N/A   Clear
10:00 PM 28.4 °F - 24.8 °F 86% 30.52 in 10.0 mi Calm Calm - N/A   Clear
10:20 PM 28.0 °F - 25.3 °F 90% 30.52 in 10.0 mi Calm Calm - N/A   Clear
10:45 PM 28.0 °F - 25.7 °F 91% 30.50 in 10.0 mi Calm Calm - N/A   Clear
11:05 PM 28.2 °F - 25.0 °F 88% 30.51 in 10.0 mi Calm Calm - N/A   Clear
11:25 PM 28.9 °F - 25.2 °F 86% 30.52 in 10.0 mi Calm Calm - N/A   Clear
11:45 PM 29.3 °F - 26.1 °F 88% 30.52 in 10.0 mi Calm Calm - N/A   Clear